Météo par heure à Jugowiec

Ce jour, 20 Juin, Dimanche

Heure Température Précipitation Vent Pression Humidité
00:00 +21°C° 0 mm 2 m/s 747 mmHg 83%
01:00 +20°C° 0 mm 2 m/s 747 mmHg 89%
02:00 +20°C° 0 mm 2 m/s 747 mmHg 89%
03:00 +20°C° 0 mm 2 m/s 747 mmHg 89%
04:00 +19°C° 0 mm 2 m/s 746 mmHg 90%
05:00 +21°C° 0 mm 2 m/s 746 mmHg 84%
06:00 +24°C° 0 mm 3 m/s 747 mmHg 78%
07:00 +25°C° 0 mm 3 m/s 747 mmHg 72%
08:00 +27°C° 0 mm 3 m/s 747 mmHg 67%
09:00 +28°C° 0 mm 3 m/s 747 mmHg 61%
10:00 +30°C° 0 mm 3 m/s 747 mmHg 56%
11:00 +31°C° 0 mm 3 m/s 746 mmHg 52%
12:00 +33°C° 0 mm 3 m/s 746 mmHg 49%
13:00 +34°C° 0 mm 3 m/s 746 mmHg 45%
14:00 +34°C° 0 mm 2 m/s 746 mmHg 45%
15:00 +34°C° 0 mm 2 m/s 745 mmHg 44%
16:00 +34°C° 0 mm 2 m/s 745 mmHg 44%
17:00 +31°C° 0 mm 2 m/s 745 mmHg 51%
18:00 +30°C° 0 mm 2 m/s 745 mmHg 58%
19:00 +28°C° 0 mm 3 m/s 744 mmHg 65%
20:00 +27°C° 0 mm 3 m/s 744 mmHg 67%
21:00 +26°C° 0 mm 3 m/s 744 mmHg 69%
22:00 +24°C° 0 mm 3 m/s 744 mmHg 70%
23:00 +24°C° 0 mm 3 m/s 744 mmHg 72%

Demain, 21 Juin, Lundi

Heure Température Précipitation Vent Pression Humidité
00:00 +22°C° 0 mm 3 m/s 744 mmHg 73%
01:00 +22°C° 0 mm 3 m/s 743 mmHg 75%
02:00 +21°C° 0 mm 3 m/s 743 mmHg 77%
03:00 +21°C° 0 mm 3 m/s 743 mmHg 79%
04:00 +20°C° 0 mm 3 m/s 743 mmHg 81%
05:00 +22°C° 0 mm 3 m/s 743 mmHg 76%
06:00 +24°C° 0 mm 3 m/s 743 mmHg 72%
07:00 +26°C° 0 mm 3 m/s 743 mmHg 68%
08:00 +28°C° 0 mm 3 m/s 743 mmHg 63%
09:00 +29°C° 0 mm 3 m/s 743 mmHg 59%
10:00 +31°C° 0 mm 3 m/s 743 mmHg 54%
11:00 +31°C° 0 mm 3 m/s 742 mmHg 52%
12:00 +32°C° 0 mm 2 m/s 742 mmHg 49%
13:00 +34°C° 0 mm 2 m/s 742 mmHg 46%
14:00 +32°C° 0.1 mm 2 m/s 742 mmHg 48%
15:00 +32°C° 0.1 mm 2 m/s 742 mmHg 51%
16:00 +31°C° 0.1 mm 2 m/s 742 mmHg 53%
17:00 +28°C° 6.9 mm 3 m/s 742 mmHg 67%
18:00 +24°C° 6.9 mm 3 m/s 743 mmHg 82%
19:00 +20°C° 6.9 mm 4 m/s 743 mmHg 96%
20:00 +20°C° 3.8 mm 3 m/s 743 mmHg 96%
21:00 +20°C° 3.8 mm 2 m/s 744 mmHg 96%
22:00 +20°C° 3.8 mm 2 m/s 744 mmHg 96%
23:00 +21°C° 0.2 mm 1 m/s 744 mmHg 96%

Après-demain, 22 Juin, Mardi

Heure Température Précipitation Vent Pression Humidité
00:00 +20°C° 0.2 mm 1 m/s 744 mmHg 96%
01:00 +20°C° 0.2 mm 1 m/s 744 mmHg 96%
02:00 +20°C° 0 mm 1 m/s 744 mmHg 96%
03:00 +20°C° 0 mm 1 m/s 744 mmHg 96%
04:00 +18°C° 0 mm 2 m/s 745 mmHg 96%
05:00 +19°C° 0 mm 2 m/s 745 mmHg 93%
06:00 +20°C° 0 mm 3 m/s 745 mmHg 90%
07:00 +21°C° 0 mm 3 m/s 746 mmHg 87%
08:00 +22°C° 0 mm 3 m/s 746 mmHg 81%
09:00 +25°C° 0 mm 3 m/s 746 mmHg 75%
10:00 +26°C° 0 mm 3 m/s 747 mmHg 68%
11:00 +27°C° 0 mm 3 m/s 747 mmHg 64%
12:00 +28°C° 0 mm 3 m/s 747 mmHg 60%
13:00 +29°C° 0 mm 3 m/s 747 mmHg 56%
14:00 +29°C° 0 mm 3 m/s 746 mmHg 56%
15:00 +29°C° 0 mm 2 m/s 746 mmHg 55%
16:00 +29°C° 0 mm 2 m/s 746 mmHg 54%
17:00 +28°C° 0 mm 2 m/s 746 mmHg 60%
18:00 +27°C° 0 mm 2 m/s 746 mmHg 66%
19:00 +26°C° 0 mm 2 m/s 746 mmHg 72%
20:00 +25°C° 0 mm 2 m/s 746 mmHg 74%
21:00 +24°C° 0 mm 2 m/s 746 mmHg 76%
22:00 +21°C° 0 mm 2 m/s 746 mmHg 78%
23:00 +21°C° 0 mm 2 m/s 746 mmHg 80%

23 Juin, Mercredi

Heure Température Précipitation Vent Pression Humidité
00:00 +21°C° 0 mm 1 m/s 746 mmHg 82%
01:00 +21°C° 0 mm 1 m/s 747 mmHg 85%
02:00 +20°C° 0.4 mm 1 m/s 747 mmHg 87%
03:00 +19°C° 0.4 mm 2 m/s 747 mmHg 89%
04:00 +19°C° 0.4 mm 2 m/s 747 mmHg 91%
05:00 +20°C° 0.1 mm 2 m/s 747 mmHg 89%
06:00 +22°C° 0.1 mm 1 m/s 747 mmHg 86%
07:00 +23°C° 0.1 mm 1 m/s 747 mmHg 84%
08:00 +22°C° 0.1 mm 3 m/s 748 mmHg 81%
09:00 +22°C° 0.1 mm 4 m/s 748 mmHg 78%
10:00 +23°C° 0.1 mm 6 m/s 748 mmHg 75%
11:00 +21°C° 0 mm 6 m/s 749 mmHg 77%
12:00 +18°C° 0 mm 7 m/s 750 mmHg 80%
13:00 +17°C° 0 mm 7 m/s 750 mmHg 82%
14:00 +17°C° 0 mm 7 m/s 751 mmHg 80%
15:00 +17°C° 0 mm 7 m/s 751 mmHg 78%
16:00 +19°C° 0 mm 6 m/s 751 mmHg 76%
17:00 +19°C° 0 mm 5 m/s 751 mmHg 76%
18:00 +17°C° 0 mm 5 m/s 751 mmHg 76%
19:00 +18°C° 0 mm 4 m/s 752 mmHg 76%
20:00 +18°C° 0 mm 3 m/s 752 mmHg 77%
21:00 +17°C° 0 mm 3 m/s 752 mmHg 79%
22:00 +17°C° 0 mm 2 m/s 752 mmHg 80%
23:00 +16°C° 0 mm 2 m/s 752 mmHg 84%

24 Juin, Jeudi

Heure Température Précipitation Vent Pression Humidité
00:00 +15°C° 0 mm 2 m/s 752 mmHg 88%
01:00 +14°C° 0 mm 1 m/s 752 mmHg 92%
02:00 +14°C° 0 mm 1 m/s 751 mmHg 93%
03:00 +13°C° 0 mm 1 m/s 751 mmHg 95%
04:00 +13°C° 0 mm 1 m/s 751 mmHg 96%
05:00 +14°C° 0 mm 1 m/s 751 mmHg 92%
06:00 +15°C° 0 mm 1 m/s 751 mmHg 88%
07:00 +18°C° 0 mm 1 m/s 751 mmHg 83%
08:00 +18°C° 0.5 mm 1 m/s 751 mmHg 84%
09:00 +19°C° 0.5 mm 1 m/s 750 mmHg 84%
10:00 +20°C° 0.5 mm 1 m/s 750 mmHg 84%
11:00 +19°C° 0.2 mm 2 m/s 750 mmHg 86%
12:00 +18°C° 0.2 mm 2 m/s 750 mmHg 87%
13:00 +18°C° 0.2 mm 3 m/s 750 mmHg 89%
14:00 +18°C° 0.3 mm 3 m/s 750 mmHg 91%
15:00 +18°C° 0.3 mm 3 m/s 750 mmHg 92%
16:00 +17°C° 0.3 mm 3 m/s 750 mmHg 94%
17:00 +17°C° 0.1 mm 3 m/s 750 mmHg 95%
18:00 +17°C° 0.1 mm 3 m/s 750 mmHg 95%
19:00 +17°C° 0.1 mm 3 m/s 750 mmHg 95%
20:00 +15°C° 0.1 mm 4 m/s 750 mmHg 96%
21:00 +15°C° 0.1 mm 4 m/s 751 mmHg 96%
22:00 +15°C° 0.1 mm 5 m/s 751 mmHg 96%
23:00 +14°C° 0.2 mm 4 m/s 751 mmHg 96%

25 Juin, Vendredi

Heure Température Précipitation Vent Pression Humidité
00:00 +14°C° 0.2 mm 4 m/s 751 mmHg 95%
01:00 +14°C° 0.2 mm 4 m/s 751 mmHg 95%
02:00 +14°C° 0 mm 3 m/s 751 mmHg 95%
03:00 +14°C° 0 mm 3 m/s 751 mmHg 96%
04:00 +14°C° 0 mm 3 m/s 751 mmHg 96%
05:00 +16°C° 0 mm 3 m/s 751 mmHg 93%
06:00 +16°C° 0 mm 3 m/s 751 mmHg 89%
07:00 +17°C° 0 mm 3 m/s 751 mmHg 86%
08:00 +18°C° 0 mm 3 m/s 751 mmHg 81%
09:00 +19°C° 0 mm 2 m/s 751 mmHg 76%
10:00 +21°C° 0 mm 2 m/s 751 mmHg 70%
11:00 +21°C° 0.1 mm 2 m/s 751 mmHg 67%
12:00 +23°C° 0.1 mm 2 m/s 751 mmHg 63%
13:00 +24°C° 0.1 mm 2 m/s 750 mmHg 60%
14:00 +24°C° 0.2 mm 2 m/s 750 mmHg 61%
15:00 +24°C° 0.2 mm 2 m/s 750 mmHg 61%
16:00 +24°C° 0.2 mm 2 m/s 750 mmHg 61%
17:00 +23°C° 0.6 mm 2 m/s 749 mmHg 69%
18:00 +21°C° 0.6 mm 2 m/s 749 mmHg 77%
19:00 +19°C° 0.6 mm 3 m/s 749 mmHg 85%
20:00 +18°C° 0.2 mm 3 m/s 749 mmHg 87%
21:00 +17°C° 0.2 mm 2 m/s 750 mmHg 90%
22:00 +16°C° 0.2 mm 2 m/s 750 mmHg 93%
23:00 +16°C° 0.1 mm 2 m/s 750 mmHg 92%
Voir plus

Nous avons besoin de votre consentement

Meteoprog et ses fournisseurs de services peuvent stocker et accéder à des données personnelles telles que des cookies, des identifiants d'appareils ou d'autres technologies similaires sur votre appareil et traiter ces données pour personnaliser le contenu et les publicités, ainsi que pour fournir des fonctionnalités de médias sociaux et analyser le trafic.

  • Stocker et/ou accéder à des informations sur votre appareil

    Des cookies, des identifiants d'appareils ou d'autres informations peuvent être stockés ou accessibles sur votre appareil aux fins indiquées ci-dessus.

  • Annonces et contenus personnalisés, mesure des annonces et des contenus, connaissance de l'audience et développement de produits

    Les annonces et le contenu peuvent être personnalisés en fonction d'un profil. D'autres données peuvent être ajoutées pour mieux personnaliser les annonces et le contenu. Les performances des publicités et du contenu peuvent être mesurées. Il est possible d'obtenir des informations sur le public qui a vu les publicités et le contenu. Ces données peuvent être utilisées pour développer ou améliorer l'expérience de l'utilisateur, les systèmes et les logiciels.

En cliquant sur "J'accepte", vous autorisez l'utilisation de cookies, des identifiants d'appareils, des balises web ou d'autres technologies similaires. Vos paramètres peuvent être modifiés dans le navigateur de votre appareil.

Dans certains cas, des intérêts légitimes peuvent être invoqués plutôt qu'un consentement. Vous pouvez en savoir plus à ce sujet dans notre Politique de confidentialité et de cookies.